Home > Weather > Plauen > Past weeks

Flag for Germany Past Weather in Plauen, Saxony, Germany — Yesterday and Last 2 Weeks

Now
48 °F

Passing clouds.


Feels Like: 48 °F
Forecast: 49 / 68 °F
Wind: No wind

Location: Karlovy Vary Airport

Current Time: May 26, 2016 at 2:54:11 AM

Latest Report: May 26, 2016 at 2:00 AM


Visibility: N/A

Pressure: 30.01 "Hg

Humidity: 100%

Dew Point: 48 °F

Location of PlauenLocation

Past Weather in Plauen — Graph

°F

Plauen Temperature Yesterday

Maximum temperature yesterday: 64 °F (at 3:00 PM)
Minimum temperature yesterday: 50 °F (at 2:00 AM)
Average temperature yesterday: 57 °F

High & Low Weather Summary for the Past Weeks

 TemperatureHumidityPressure
High81 °F (May 22, 4:00 PM)100% (May 24, 1:00 AM)30.12 "Hg (May 24, 1:00 AM)
Low36 °F (May 15, 6:00 AM)24% (May 22, 4:30 PM)29.45 "Hg (May 13, 5:00 AM)
Average54 °F66%29.87 "Hg
* Reported May 11 1:00 AM — May 26 1:00 AM, Plauen, Weather by CustomWeather, © 2016

Note: Actual official high and low records may vary slightly from our data, if they occured in-between our weather recording intervals... More about our weather records

Advertising

Plauen Weather History for the Previous 24 Hours

Scroll right to see more
 ConditionsComfort  
Time TempWeatherWind HumidityBarometerVisibility
1:00 AM
Thu, May 26
48 °FPassing clouds.1 mph94%30.01 "HgN/A
12:00 AM48 °FPassing clouds.No wind94%30.01 "HgN/A
11:00 PM
Wed, May 25
52 °FPassing clouds.No wind88%29.98 "HgN/A
10:00 PM55 °FScattered clouds.6 mph82%29.98 "HgN/A
9:00 PM57 °FScattered clouds.3 mph77%29.98 "HgN/A
8:30 PM57 °FScattered clouds.6 mph72%29.98 "HgN/A
8:00 PM61 °FPassing clouds.6 mph68%29.95 "HgN/A
7:30 PM61 °FPassing clouds.6 mph68%29.95 "HgN/A
7:00 PM61 °FPassing clouds.6 mph68%29.95 "HgN/A
6:30 PM63 °FPassing clouds.8 mph64%29.95 "HgN/A
6:00 PM63 °FPassing clouds.8 mph64%29.95 "HgN/A
5:30 PM63 °FScattered clouds.12 mph64%29.95 "HgN/A
5:00 PM63 °FScattered clouds.12 mph64%29.95 "HgN/A
4:30 PM63 °FScattered clouds.13 mph68%29.95 "HgN/A
4:00 PM63 °FPassing clouds.9 mph64%29.95 "HgN/A
3:30 PM63 °FScattered clouds.12 mph68%29.95 "HgN/A
3:00 PM64 °FScattered clouds.12 mph64%29.95 "HgN/A
2:30 PM63 °FScattered clouds.9 mph64%29.95 "HgN/A
2:00 PM63 °FPartly sunny.6 mph68%29.95 "HgN/A
1:30 PM63 °FPartly sunny.8 mph64%29.95 "HgN/A
1:00 PM63 °FPartly sunny.5 mph64%29.95 "HgN/A
12:30 PM61 °FScattered clouds.3 mph68%29.95 "HgN/A
12:00 PM61 °FScattered clouds.3 mph63%29.95 "HgN/A
11:30 AM59 °FScattered clouds.3 mph68%29.95 "HgN/A
11:00 AM59 °FPartly sunny.5 mph72%29.95 "HgN/A
10:30 AM57 °FPartly sunny.3 mph72%29.95 "HgN/A
10:00 AM55 °FPartly sunny.7 mph77%29.95 "HgN/A
9:30 AM55 °FPartly sunny.6 mph77%29.95 "HgN/A
9:00 AM54 °FPartly sunny.6 mph77%29.95 "HgN/A
8:30 AM52 °FPartly sunny.6 mph82%29.95 "HgN/A
8:00 AM52 °FPartly sunny.6 mph82%29.95 "HgN/A
7:00 AM50 °FMore clouds than sun.5 mph88%29.95 "HgN/A
6:00 AM50 °FMostly cloudy.7 mph88%29.92 "HgN/A
5:00 AM50 °FPartly cloudy.6 mph88%29.92 "HgN/A
4:00 AM50 °FPassing clouds.3 mph88%29.92 "HgN/A
3:00 AM50 °FOvercast.5 mph88%29.92 "HgN/A
2:00 AM50 °FOvercast.7 mph88%29.92 "HgN/A
Weather by CustomWeather, © 2016

See weather overviewHow to use our weather pages